Погода в Золотилове

Россия / Ивановская область     57°19′17″N   41°38′35″E
темп.,
°C
ветер,
м/с
пор.,
м/с
влажн.,
%
обл.,
%
осадки,
мм/ч
давл.,
гПа
погр.,
м
22 апреля, чт
чт2200:00+3ююз4992100 0.0 1012392
03:00+3ю4995100 0.0 1013350
06:00+3ююз4894100 0.0 1014555
09:00+4ю5997100 0.3 1015602
12:00+5ююз5991100 0.1 1016598
15:00+9ююз5975100 0.2 10161008
18:00+10ююз597023 0.1 1016494
21:00+7ю4118557 0.1 1017263
23 апреля, пт
пт2300:00+5ю4119121 0.0 1017234
03:00+4ююв410935 0.0 1017184
06:00+5ююв4119129 0.0 1017247
09:00+11ю6117226 0.0 1017553
12:00+15ю795595 0.3 10171525
15:00+14ю61060100 1.3 1016956
18:00+13ююв611618 0.0 1016682
21:00+9юв514769 0.1 1016339
24 апреля, сб
сб2400:00+8юв512815 0.0 1014263
03:00+7юв512806 0.0 1012271
06:00+7вюв6147993 0.0 1011337
09:00+11юв8137693 0.2 1009840
12:00+12юв91472100 0.7 10071627
15:00+12ююв6972100 3.2 10051512
18:00+2з61198100 11.7 1007479
21:00+3зсз3898100 14.2 1008482
25 апреля, вс
вс2500:00+3з3794100 0.3 1007502
03:00+2зюз3796100 0.3 1007200
06:00+1зюз39924 0.0 1007278
09:00+5з68675 0.0 1008869
12:00+8з6853100 0.1 10081995
15:00+8з684896 0.4 10092000
18:00+7зюз47595 0.3 1009844
21:00+3юз36757 0.3 1011104
26 апреля, пн
пн2600:00+1юз39855 0.0 1011202
03:000юз49915 0.0 1012234
06:00+1юз410865 0.0 1013337
09:00+5юз576260 0.0 10121212
12:00+7юз5747100 0.3 10122048
15:00+9юз574298 0.6 10112218
18:00+7зюз475233 0.2 1011466
21:00+3ю226575 0.2 101110